Regional Weather Roundup
Issued by NWS

Home | Current Version | Previous Version | Graphics & Text | Print | Product List | Glossary On
Versions: 1 2 3 4 5 6 7 8 9 10 11 12 13 14 15 16 17 18 19 20 21 22 23 24 25 26 27 28 29 30 31 32 33 34 35 36 37 38 39 40 41 42 43 44 45 46 47 48 49 50
958
ASUS45 KSLC 190010
RWRUT

UTAH REGIONAL WEATHER ROUNDUP
NATIONAL WEATHER SERVICE SALT LAKE CITY UT
500 PM MST SAT FEB 18 2017

UTZ001>011-023>025-190100-

NORTHERN UTAH

CITY           SKY/WX    TMP DP  RH WIND       PRES   REMARKS
BRIGHAM CITY     N/A     47  38  70 NE3       29.61F
HILL AFB       LGT RAIN  46  37  71 E10       29.61R
LOGAN          CLOUDY    46  39  76 N7        29.62S
OGDEN          LGT RAIN  48  38  68 E8        29.60R
SALT LAKE CITY CLOUDY    53  35  50 SE5       29.58R
TOOELE VALLEY  CLOUDY    54  36  50 CALM      29.58S
WENDOVER       CLOUDY    48  37  66 NE5       29.56F
HEBER CITY     CLOUDY    48  28  46 S7        29.63S
WEST JORDAN    CLOUDY    55  43  64 S9        29.60R

$$

UTZ011>015-024>027-190100-

CENTRAL/NORTHEAST UTAH

CITY           SKY/WX    TMP DP  RH WIND       PRES   REMARKS
PROVO AIRPORT  CLOUDY    54  33  45 SE12      29.61R
MOAB/CANYONLAN CLOUDY    48  42  80 N5        29.71F
DELTA          CLOUDY    52  34  50 SW6       29.60R
PRICE          CLOUDY    37  36  96 E9        29.73S WCI  30
ROOSEVELT      MIX PCPN  41  37  87 N5        29.77R
VERNAL         LGT RAIN  38  36  92 N7        29.75R WCI  33

$$

UTZ013>016-019>022-027-190100-

SOUTHERN UTAH

CITY           SKY/WX    TMP DP  RH WIND       PRES   REMARKS
BRYCE CANYON   LGT SNOW  34  32  92 SE9       29.70R FOG     WCI  27
CEDAR CITY     LGT RAIN  43  37  79 SW10      29.61S
MILFORD        LGT RAIN  47  38  71 SE8       29.61S
ST GEORGE      CLOUDY    53  45  74 NE14      29.59S
HANKSVILLE     CLOUDY    46  39  76 CALM      29.72F
BLANDING       CLOUDY    49  37  63 NE3       29.77F

$$

REGIONAL REPORTS     COLORADO/ARIZONA

CITY           SKY/WX    TMP DP  RH WIND       PRES   REMARKS
CRAIG, CO      CLOUDY    44  32  62 CALM      29.76R
GRAND JUNCTION CLEAR     48  39  71 W10       29.72S
RIFLE, CO      CLOUDY    50  34  54 W13       29.71R
MONTROSE, CO   CLOUDY    51  34  52 N7        29.73R
CORTEZ, CO     CLOUDY    53  31  42 SE8       29.70S
COLORADO CITY    N/A     46  41  81 E9        29.66F
PAGE, AZ       CLOUDY    50  39  66 N3        29.65S
GRAND CANYON   LGT RAIN  41  38  89 VRB3      29.68R
KINGMAN, AZ    LGT RAIN  50  45  83 VRB7      29.56R
FLAGSTAFF, AZ  LGT RAIN  40  37  89 E3        29.67S

$$

REGIONAL REPORTS    NEVADA/IDAHO/WYOMING

CITY           SKY/WX    TMP DP  RH WIND       PRES   REMARKS
LAS VEGAS, NV  RAIN      53  49  86 NE3       29.54R FOG
ELY, NY        LGT RAIN  40  34  79 S23G30    29.57R WCI  30
ELKO, NV       LGT RAIN  45  36  70 SW13      29.51R
POCATELLO, ID  CLOUDY    47  35  63 S18       29.57F
BURLEY, ID     LGT RAIN  48  36  63 VRB7      29.51F
FORT BRIDGER,  CLOUDY    34  34 100 NE5       29.70F WCI  30
EVANSTON, WY   CLOUDY    37  29  72 E8        29.67S WCI  31
ROCK SPRINGS,  CLOUDY    39  30  70 S16G24    29.68S WCI  30
KEMMERER, WY     N/A     36  32  87 N8        29.69S WCI  29

$$




USA.gov is the U.S. government's official web portal to all federal, state and local government web resources and services.